This demonstration page uses our WeatherBlox Daily Observations layout. Learn more.

Left ArrowRight Arrow

Hourly Observations for May 25, 2017

Temp ( °F °C ) Dew Point ( °F °C ) Humidity (%) Winds ( mph kmh ) Pressure ( in mb ) Visibility ( mi km ) Precip ( " mm )
12:15 am 00:15 Clear 54 12 43 6 67 67 SSE 16 26 29.59 1002 10 16 0.00 0.00
12:35 am 00:35 Clear 54 12 43 6 67 67 SSE 15 24 29.59 1002 10 16 0.00 0.00
12:55 am 00:55 Clear 54 12 43 6 67 67 SSE 15 24 29.59 1002 10 16 0.00 0.00
1:15 am 01:15 Clear 54 12 43 6 67 67 SSE 14 22 29.59 1002 10 16 0.00 0.00
1:35 am 01:35 Clear 54 12 43 6 67 67 SSE 16 26 29.59 1002 10 16 0.00 0.00
1:55 am 01:55 Clear 54 12 43 6 67 67 SSE 15 24 29.56 1001 10 16 0.00 0.00
2:15 am 02:15 Clear 54 12 43 6 67 67 S 17 28 29.56 1001 10 16 0.00 0.00
2:35 am 02:35 Clear 54 12 43 6 67 67 S 14 22 29.56 1001 10 16 0.00 0.00
2:55 am 02:55 Clear 54 12 43 6 67 67 SSE 18 30 29.56 1001 10 16 0.00 0.00
3:15 am 03:15 Clear 54 12 43 6 67 67 S 18 30 29.56 1001 10 16 0.00 0.00
3:35 am 03:35 Clear 52 11 43 6 72 72 S 16 26 29.59 1002 10 16 0.00 0.00
3:55 am 03:55 Clear 52 11 43 6 72 72 SSE 14 22 29.59 1002 10 16 0.00 0.00
4:15 am 04:15 Clear 52 11 43 6 72 72 S 14 22 29.59 1002 10 16 0.00 0.00
4:35 am 04:35 Clear 52 11 43 6 72 72 S 15 24 29.56 1001 10 16 0.00 0.00
4:55 am 04:55 Clear 52 11 43 6 72 72 S 17 28 29.56 1001 10 16 0.00 0.00
5:15 am 05:15 Clear 52 11 43 6 72 72 S 15 24 29.56 1001 10 16 0.00 0.00
5:35 am 05:35 Clear 52 11 43 6 72 72 S 14 22 29.56 1001 10 16 0.00 0.00
5:55 am 05:55 Clear 50 10 43 6 76 76 SSE 12 19 29.56 1001 10 16 0.00 0.00
6:15 am 06:15 Sunny 50 10 43 6 76 76 SSE 14 22 29.56 1001 10 16 0.00 0.00
6:35 am 06:35 Sunny 50 10 43 6 76 76 SSE 15 24 29.56 1001 10 16 0.00 0.00
6:55 am 06:55 Sunny 52 11 43 6 72 72 SSE 15 24 29.56 1001 10 16 0.00 0.00
7:15 am 07:15 Sunny 52 11 43 6 72 72 SSE 14 22 29.56 1001 10 16 0.00 0.00
7:35 am 07:35 Sunny 52 11 43 6 72 72 S 14 22 29.56 1001 10 16 0.00 0.00
7:55 am 07:55 Sunny 54 12 43 6 67 67 SSE 16 26 29.53 1000 10 16 0.00 0.00
8:15 am 08:15 Sunny 55 13 43 6 63 63 S 18 30 29.53 1000 10 16 0.00 0.00
8:35 am 08:35 Sunny 57 14 43 6 59 59 S 20 31 29.53 1000 10 16 0.00 0.00
8:55 am 08:55 Sunny 59 15 43 6 55 55 S 28 44 29.53 1000 10 16 0.00 0.00
9:15 am 09:15 Sunny 57 14 43 6 59 59 S 23 37 29.53 1000 10 16 0.00 0.00
9:35 am 09:35 Sunny 61 16 45 7 55 55 S 23 37 29.50 999 10 16 0.00 0.00
9:55 am 09:55 Sunny 61 16 45 7 55 55 SSW 22 35 29.50 999 10 16 0.00 0.00
10:15 am 10:15 Sunny 61 16 45 7 55 55 S 20 31 29.50 999 10 16 0.00 0.00
10:35 am 10:35 Sunny 63 17 46 8 56 56 S 17 28 29.50 999 10 16 0.00 0.00
10:55 am 10:55 Sunny 64 18 46 8 52 52 S 15 24 29.50 999 10 16 0.00 0.00
11:15 am 11:15 Sunny 64 18 46 8 52 52 S 20 31 29.47 998 10 16 0.00 0.00
11:35 am 11:35 Sunny 66 19 46 8 49 49 S 17 28 29.44 997 10 16 0.00 0.00
11:55 am 11:55 Sunny 68 20 48 9 49 49 S 16 26 29.44 997 10 16 0.00 0.00
12:15 pm 12:15 Sunny 68 20 46 8 46 46 S 16 26 29.44 997 10 16 0.00 0.00
12:35 pm 12:35 Sunny 70 21 50 10 50 50 S 16 26 29.44 997 10 16 0.00 0.00
12:55 pm 12:55 Sunny 72 22 50 10 47 47 SSE 17 28 29.41 996 10 16 0.00 0.00
1:15 pm 13:15 Sunny 72 22 50 10 47 47 S 13 20 29.44 997 10 16 0.00 0.00
1:35 pm 13:35 Sunny 70 21 48 9 46 46 S 15 24 29.41 996 10 16 0.00 0.00
1:55 pm 13:55 Sunny 72 22 50 10 47 47 S 14 22 29.44 997 10 16 0.00 0.00
2:15 pm 14:15 Sunny 73 23 50 10 44 44 S 18 30 29.41 996 10 16 0.00 0.00
2:35 pm 14:35 Sunny 72 22 50 10 47 47 S 14 22 29.44 997 10 16 0.00 0.00
2:55 pm 14:55 Sunny 72 22 50 10 47 47 SSW 9 15 29.44 997 10 16 0.00 0.00
3:15 pm 15:15 Sunny 72 22 50 10 47 47 SW 9 15 29.44 997 10 16 0.00 0.00
3:35 pm 15:35 Sunny 73 23 52 11 47 47 SSW 6 9 29.38 995 10 16 0.00 0.00
3:55 pm 15:55 Sunny 73 23 52 11 47 47 S 9 15 29.41 996 10 16 0.00 0.00
4:15 pm 16:15 Sunny 75 24 52 11 44 44 S 12 19 29.38 995 10 16 0.00 0.00
4:35 pm 16:35 Sunny 75 24 52 11 44 44 S 9 15 29.38 995 10 16 0.00 0.00
4:55 pm 16:55 Sunny 75 24 52 11 44 44 SSW 7 11 29.38 995 10 16 0.00 0.00
5:15 pm 17:15 Sunny 75 24 54 12 47 47 SSE 5 7 29.41 996 10 16 0.00 0.00
5:35 pm 17:35 Sunny 75 24 54 12 47 47 S 5 7 29.41 996 10 16 0.00 0.00
5:55 pm 17:55 Sunny 75 24 52 11 44 44 Calm 29.41 996 10 16 0.00 0.00
6:15 pm 18:15 Sunny 75 24 52 11 44 44 Calm 29.44 997 10 16 0.00 0.00
6:35 pm 18:35 Sunny 75 24 52 11 44 44 WNW 6 9 29.44 997 10 16 0.00 0.00
6:55 pm 18:55 Sunny 75 24 52 11 44 44 NW 12 19 29.47 998 10 16 0.00 0.00
7:15 pm 19:15 Sunny 73 23 52 11 47 47 NW 10 17 29.50 999 10 16 0.00 0.00
7:35 pm 19:35 Sunny 73 23 52 11 47 47 NW 10 17 29.50 999 10 16 0.00 0.00
7:55 pm 19:55 Sunny 73 23 52 11 47 47 NNW 6 9 29.50 999 10 16 0.00 0.00
8:15 pm 20:15 Sunny 72 22 52 11 50 50 NNW 6 9 29.50 999 10 16 0.00 0.00
8:35 pm 20:35 Sunny 68 20 54 12 60 60 E 10 17 29.50 999 10 16 0.00 0.00
8:55 pm 20:55 Sunny 68 20 54 12 60 60 ESE 5 7 29.50 999 10 16 0.00 0.00
9:15 pm 21:15 Clear 66 19 54 12 64 64 Calm 29.56 1001 10 16 0.00 0.00
9:35 pm 21:35 Clear 70 21 54 12 57 57 WSW 5 7 29.53 1000 10 16 0.00 0.00
9:55 pm 21:55 Clear 70 21 54 12 57 57 WSW 6 9 29.56 1001 10 16 0.00 0.00
10:15 pm 22:15 Mostly Clear 70 21 54 12 57 57 W 6 9 29.59 1002 10 16 0.00 0.00
10:35 pm 22:35 Mostly Clear 66 19 54 12 64 64 N 3 6 29.59 1002 10 16 0.00 0.00
10:55 pm 22:55 Clear 66 19 54 12 64 64 Calm 29.62 1003 10 16 0.00 0.00
11:15 pm 23:15 Clear 64 18 55 13 73 73 Calm 29.59 1002 10 16 0.00 0.00
11:35 pm 23:35 Mostly Clear 63 17 55 13 77 77 NNE 7 11 29.59 1002 10 16 0.00 0.00
11:55 pm 23:55 Mostly Cloudy 63 17 54 12 73 73 N 9 15 29.59 1002 10 16 0.00 0.00

Powered by AerisWeather